Погода в Смоленске

Погода в Смоленске : погода сейчас, прогноз погоды и архив. Всё, что Вы хотите узнать о погоде в Смоленске!

Хотите узнать прогноз погоды в Смоленске? Тогда Вам сюда: Погода в Смоленске

Поиск расширенной информации на нашем сайте:

Другие новости

Новости СМИ2

Главная страница сайта

Новости сайта

03.07.2017

Напоминаем, что на нашем специализированном сайте Метеоцентр.Азия вы можете получить высокодетализированные автоматические прогнозы погоды по пунктам России, СНГ и мира в авиационном формате (включающие направление и скорость ветра, видимость, явления погоды, количество и форму облачности, нижнюю и верхнюю границу облачности).

Рекомендуем: белый кот

Погода в Смоленске - сегодня

Время (UTC), дата Ветер
(°,м/с) 
Видим.   Явления Облачность Т
(°С)
Тd
(°С)
f(%) Тe
(°С)
Pmin
(гПа)
dP
(гПа)
Po
(мм)
O2
(г/м3)
Тmin Tmax R s Состояние
почвы
21 12.10.18 250 (З) 10 км    ясно 
+7.6 +6.8 95 +9  1034.6  0.2  754  294           
00 13.10.18 280 (З) 10 км    ясно 
+7 +5.1 88 +8  1034  -0.7  753  295           
09 13.10.18 280 (З) 20000 м    3/0 верхняя 
[Ci fib]
+14 +7.8 66 +15  1032.9  0.2  753  287           
12 13.10.18 240 (ЮЗ) 20000 м    1/0 верхняя 
[Ci fib]
+17.2 +8.3 56 +18  1031.4  -1.1  752  284           
15 13.10.18 270 (З) 20000 м    6/0 верхняя 
[Ci]
+12.7 +8.1 74 +14  1030.9  -0.9  751  288           
21 13.10.18 тихо ()   4000 м  дымка  8/0 верхняя 
[Ci fib]
+7.2 +6.4 95 +7  1031.5  0.2  751  294           
03 14.10.18 тихо ()   2000 м  дымка  8/0 верхняя 
[Ci fib]
+4 +3.7 98 +4  1031.7  -0.1  751  298  +4         
06 14.10.18 290 (З) 0050 м  туман  8/0 верхняя 
[Ci fib]
+6.1 +5.7 97 +7  1031.6  0.1  751  295  +3.5         
09 14.10.18 280 (З) 10 км    5/0 верхняя 
[Ci fib]
+12.7 +9.6 81 +15  1031.5  0.6  752  288           
15 14.10.18 тихо ()   20000 м    3/0 верхняя 
[Ci fib]
+12.1 +9.9 86 +13  1030  -0.6  751  288           
21 14.10.18 тихо ()   2000 м  дымка  ясно 
+7.4 +6.9 97 +7  1030.4  0.1  751  293           
00 15.10.18 тихо ()   2000 м  местами туман поземный  ясно 
+6.5 +6.1 97 +7  1030.8  0.3  751  295           
03 15.10.18 тихо ()   0500 м  туман  ясно 
+2.4 +2.2 99 +2  1031.1  -0.2  751  300  +2.4         
09 15.10.18 230 (ЮЗ) 4000 м  дымка{туман}  ясно 
+15.3 +9.9 70 +18  1030.3  0.2  751  285           
15 15.10.18 тихо ()   10 км    5/0 
[]
+12 +5.1 63 +12  1029.3  -0.6  750  289           
21 15.10.18 тихо ()   4000 м  дымка  8/0 верхняя 
[Ci]
+5 +4.1 94 +5  1029.1  -0.4  750  296           
03 16.10.18 тихо ()   4000 м  дымка  ясно 
+2 +1.8 99 +2  1029.5  -0.4  750  300  +1.5         
06 16.10.18 тихо ()   4000 м  дымка  6/0 верхняя 
[Ci fib]
+5.4 +5.1 98 +5  1028.9  -0.2  749  295  +1         
09 16.10.18 220 (ЮЗ) 20000 м    ясно 
+16.3 +5.1 47 +17  1027.6  -0.2  749  284           
12 16.10.18 220 (ЮЗ) 20000 м    ясно 
+19.4 +3.1 34 +20  1026.3  -0.2  749  281           
15 16.10.18 210 (ЮЗ) 20000 м    ясно 
+12.8 +5.2 60 +14  1026.5  -0.5  748  287           
21 16.10.18 250 (З) 10 км    ясно 
+7.8 +6.7 93 +9  1027  0.2  748  292           
00 17.10.18 тихо ()   10 км    ясно 
+5.7 +5.2 97 +6  1027.2  748  294           
03 17.10.18 тихо ()   4000 м  местами туман поземный  ясно 
+3.7 +3.4 98 +4  1027.2  -0.3  748  297  +3.5         
09 17.10.18 200 (Ю) 20000 м    ясно 
+17.2 +8.9 58 +19  1026.6  0.4  749  282           
Время (UTC), дата Ветер
(°,м/с) 
Видим.   Явления Облачность Т
(°С)
Тd
(°С)
f(%) Тe
(°С)
Pmin
(гПа)
dP
(гПа)
Po
(мм)
O2
(г/м3)
Тmin Tmax R s Состояние
почвы

Для получения пояснительной информации подведите курсор к названию столбца.

ПОГОДА в Смоленске - архив

Всё, что Вы хотите узнать о погоде в Смоленске - удобно и подробно!

Выберите нужную дату (начиная с 1 января 2015* года) и нажмите кнопку "Найти".
Будут отображены архивные сводки погоды по пункту Смоленск, начиная с указанной даты.


Отображать данные в формате CSV (для использования в таблицах Excel)


Внимание! Наш архив погоды предназначен исключительно для личного некоммерческого использования в познавательных целях. Если Вам необходимы официальные справки о состоянии погоды (для производственных, юридических, коммерческих и т.п. целей), обращайтесь в органы Росгидромета.

*Примечание: данная дата относится к архиву по метеостанциям СССР (Россия, СНГ, Балтия).
Архив по метеостанциям Зарубежной Европы и Азии (кроме Китая) хранится 10 дней, по другим регионам земного шара (Китай, Африка, Америка, Австралия, Океания) - 1 день.

Смоленск - район местоположения метеостанции


Название, широта, долгота, высота метеостанции:
Смоленск 54.8°ш. 32.1°д. 239 м над ур. моря [Российская Федерация]

Дополнительная информация

В oтличие oт бoльшинства пoгoдных сайтoв мы публикуем пoдрoбную метеoинфoрмацию в детальнoм прoфессиoнальнoм фoрмате.

Характеристики температуры и влажнoсти вoздуха измеряются на высoте 2 м в тени вдали oт зданий и деревьев.
Скoрoсть ветра измеряется на высoте 10 м (на урoвне рoста челoвека скoрoсть ветра ниже в 1.5-2 раза). Если метеoстанция нахoдится в гoрoде или в лесу, тo скoрoсть ветра занижена на 2-4 м/с пo сравнению с oткрытым местoм. Скoрoсть ветра над акватoриями крупных рек и oзёр, а также на вершинах хoлмoв на 2-5 м/с выше, чем в oбычных услoвиях.
Атмoсфернoе давление в разных тoчках местнoсти мoжет значительнo oтличаться oт давления на метеoстанции, в зависимoсти oт услoвий рельефа (при пoдъёме на 10 м давление пoнижается примернo на 1 мм рт.ст.).